[[{"header":{"parameterUnit":"m.s-1","parameterCategory":1,"la1":30.2991,"la2":30.254,"lo1":-89.0895,"lo2":-89.0444,"dy":0.0017,"dx":0.0017,"nx":28,"ny":28,"refTime":"2024-04-23T09:00:00:Z","depth":0,"parameterNumber":2,"parameterNumberName":"U-component_of_WINDS"},"data":[0,0,0,0,0,0,0,0,0,0,0,0,0,0,0,0,0,0,0,0,0,0,0,0,0,0,0,0,0,0,0,0,0,0,0,0,0,0,0,0,0,0,0,0,0,0,0,0,0,0,0,0,0,0,0,0,0,0,-1.6102,-1.6101,0,-1.6037,-1.6037,-1.6036,-1.5986,-1.5986,-1.5986,-1.5985,-1.5917,-1.5915,-1.5914,0,0,0,0,0,0,0,0,0,0,0,0,0,-1.618,-1.6179,-1.6102,-1.6101,-1.61,-1.6037,-1.6037,-1.6036,-1.5987,-1.5986,-1.5985,-1.5985,-1.5917,-1.5916,-1.5914,0,0,0,0,0,0,0,0,0,0,0,0,0,-1.6134,-1.6178,-1.6102,-1.6068,-1.6064,-1.6038,-1.6037,-1.6035,-1.5987,-1.5986,-1.5985,-1.5985,-1.5918,-1.5916,-1.5914,-1.5915,0,0,-1.5907,-1.5906,0,0,0,0,0,0,0,0,-1.6136,-1.6131,-1.6074,-1.607,-1.6066,-1.6019,-1.6039,-1.5995,-1.5987,-1.6016,-1.5985,-1.5984,-1.5951,-1.5946,-1.5936,-1.5911,-1.5908,-1.5907,-1.5906,-1.5905,-1.5904,0,0,0,0,0,0,0,-1.614,-1.6133,-1.6076,-1.6073,-1.6068,-1.6055,-1.6048,-1.603,-1.5988,-1.6013,-1.601,-1.6003,-1.5949,-1.5938,-1.5934,-1.5907,-1.5907,-1.5905,-1.5904,-1.5903,-1.588,-1.5881,0,0,0,0,0,0,-1.6148,-1.6136,-1.6078,-1.6074,-1.61,-1.6055,-1.6046,-1.6035,-1.5988,-1.5981,-1.6004,-1.6001,-1.5942,-1.5936,-1.5931,-1.5929,-1.5905,-1.5903,-1.5902,-1.588,-1.5881,-1.5881,0,0,0,0,0,0,-1.615,-1.6144,-1.6081,-1.6104,-1.6095,-1.6054,-1.6042,-1.6034,-1.6023,-1.5981,-1.5973,-1.6,-1.5941,-1.5934,-1.5919,-1.5926,-1.5902,-1.59,-1.5879,-1.588,-1.5881,-1.5925,0,0,0,0,0,0,-1.6153,-1.6145,-1.6145,-1.6105,-1.6094,-1.6071,-1.6042,-1.6033,-1.602,-1.6016,-1.5975,-1.5968,-1.594,-1.5923,-1.5917,-1.5923,-1.5898,-1.5878,-1.588,-1.5881,-1.5923,-1.5927,-1.5931,0,0,0,0,0,-1.6156,-1.6159,-1.6145,-1.6138,-1.6094,-1.6071,-1.6065,-1.6033,-1.6021,-1.602,-1.5993,-1.5969,-1.5926,-1.5922,-1.5915,-1.592,-1.5878,-1.5879,-1.5881,-1.5921,-1.5926,-1.5931,0,0,0,0,0,0,-1.62,-1.6153,-1.6137,-1.6128,-1.6104,-1.6063,-1.6061,-1.604,-1.6019,-1.6016,-1.5976,-1.5968,-1.5957,-1.5937,-1.5932,-1.5918,-1.5899,-1.5899,-1.5932,-1.5937,-1.5941,-1.5946,-1.5897,0,0,0,0,0,-1.621,-1.6196,-1.6155,-1.6151,-1.614,-1.6103,-1.6092,-1.607,-1.6043,-1.6032,-1.6004,-1.5978,-1.5959,-1.5947,-1.5927,-1.592,-1.591,-1.592,-1.5924,-1.5928,-1.5928,-1.5923,-1.5927,-1.5886,-1.5886,-1.5886,0,0,-1.6227,-1.62,-1.6194,-1.6159,-1.6138,-1.6124,-1.6095,-1.6081,-1.607,-1.6029,-1.6014,-1.5993,-1.5961,-1.5951,-1.5945,-1.5934,-1.5938,-1.593,-1.5933,-1.5931,-1.5925,-1.5929,-1.5933,-1.5887,-1.5887,-1.5887,0,0,-1.6253,-1.6231,-1.6225,-1.6205,-1.6174,-1.6149,-1.6148,-1.611,-1.6095,-1.6079,-1.6049,-1.6035,-1.6002,-1.5981,-1.5966,-1.5985,-1.5962,-1.5979,-1.6001,-1.5997,-1.6,-1.6003,-1.6009,-1.6012,-1.598,-1.598,-1.598,0,-1.6279,-1.6258,-1.6225,-1.6213,-1.6199,-1.6163,-1.6157,-1.6138,-1.6102,-1.6092,-1.6081,-1.604,-1.6016,-1.6,-1.6005,-1.5994,-1.5991,-1.5983,-1.6003,-1.6005,-1.6007,-1.6012,-1.6015,-1.5982,-1.5982,-1.5982,-1.5982,0,-1.6291,-1.6277,-1.6276,-1.6242,-1.6228,-1.6219,-1.6184,-1.6173,-1.6153,-1.613,-1.6114,-1.6084,-1.6058,-1.6052,-1.6031,-1.6033,-1.6028,-1.601,-1.5989,-1.6014,-1.6018,-1.602,-1.5986,-1.5985,-1.5984,-1.5984,0,0,-1.6342,-1.6292,-1.6292,-1.6276,-1.624,-1.6227,-1.6217,-1.6192,-1.6183,-1.6159,-1.6149,-1.6123,-1.6107,-1.609,-1.6066,-1.6062,-1.6079,-1.6045,-1.6044,-1.6052,-1.6079,-1.6092,-1.6095,-1.6064,-1.6064,-1.6065,-1.6081,0,-1.6362,-1.6342,-1.6312,-1.6301,-1.6287,-1.6253,-1.6244,-1.622,-1.6198,-1.6183,-1.6158,-1.614,-1.612,-1.611,-1.6105,-1.6078,-1.6084,-1.6077,-1.6053,-1.6053,-1.6062,-1.6098,-1.6111,-1.6129,-1.6083,-1.6083,-1.6084,0,-1.6382,-1.6361,-1.6349,-1.6313,-1.6306,-1.6299,-1.6273,-1.6259,-1.6231,-1.6216,-1.6198,-1.6173,-1.6159,-1.6142,-1.6122,-1.6118,-1.6107,-1.6092,-1.6092,-1.6088,-1.6069,-1.6094,-1.6133,-1.6136,-1.6086,-1.6086,-1.6086,0,-1.642,-1.6389,-1.6378,-1.6365,-1.6324,-1.6319,-1.6302,-1.6273,-1.626,-1.6238,-1.6229,-1.6205,-1.6192,-1.6174,-1.6143,-1.6133,-1.6127,-1.6107,-1.6113,-1.6114,-1.6113,-1.6113,-1.615,-1.6107,-1.6107,-1.6107,-1.6107,0,-1.6445,-1.6439,-1.6394,-1.6387,-1.6379,-1.6346,-1.6338,-1.6318,-1.6293,-1.6281,-1.625,-1.6239,-1.62,-1.6184,-1.616,-1.6147,-1.6142,-1.6128,-1.6122,-1.6131,-1.6132,-1.6122,-1.612,-1.6107,-1.6107,-1.6107,-1.6107,0,-1.6486,-1.6456,-1.6441,-1.6404,-1.6394,-1.639,-1.6357,-1.6349,-1.6326,-1.6311,-1.6306,-1.6269,-1.6249,-1.6217,-1.6187,-1.6171,-1.6163,-1.6152,-1.6172,-1.6168,-1.6176,-1.6176,-1.6208,-1.621,-1.6166,-1.6167,-1.6167,0,-1.6503,-1.6498,-1.646,-1.645,-1.6434,-1.6418,-1.6405,-1.6372,-1.6359,-1.6327,-1.6323,-1.6301,-1.6282,-1.6251,-1.6222,-1.6199,-1.6187,-1.62,-1.6184,-1.6193,-1.6187,-1.6188,-1.6187,-1.6204,-1.6204,-1.6205,-1.6205,0,-1.6537,-1.6523,-1.6505,-1.6483,-1.6468,-1.6449,-1.6427,-1.6421,-1.6383,-1.637,-1.635,-1.6335,-1.6306,-1.6284,-1.6257,-1.6238,-1.6215,-1.6211,-1.6211,-1.622,-1.6232,-1.6225,-1.6182,-1.621,-1.621,-1.6209,-1.6209,-1.6209,-1.6567,-1.656,-1.6533,-1.6514,-1.6495,-1.6476,-1.6467,-1.6443,-1.6426,-1.64,-1.6381,-1.6362,-1.6334,-1.6296,-1.6279,-1.6263,-1.6253,-1.6253,-1.6253,-1.6254,-1.6257,-1.6235,-1.6258,-1.6258,-1.6258,-1.6258,-1.6257,0,-1.6599,-1.658,-1.6563,-1.6535,-1.652,-1.6501,-1.6477,-1.6466,-1.645,-1.6426,-1.6408,-1.6385,-1.6364,-1.6334,-1.631,-1.6303,-1.6292,-1.6298,-1.6298,-1.6294,-1.6268,-1.627,-1.6308,-1.6308,-1.6308,-1.6308,-1.6308,-1.6308,-1.6614,-1.6602,-1.6585,-1.6563,-1.6544,-1.6526,-1.6513,-1.6496,-1.6477,-1.6453,-1.6436,-1.6416,-1.6389,-1.6364,-1.6344,-1.6335,-1.6328,-1.6337,-1.6325,-1.6301,-1.6296,-1.6292,-1.6293,-1.6336,-1.6336,-1.6353,-1.6353,-1.6353]},{"header":{"parameterUnit":"m.s-1","parameterCategory":1,"la1":30.2991,"la2":30.254,"lo1":-89.0895,"lo2":-89.0444,"dy":0.0017,"dx":0.0017,"nx":28,"ny":28,"refTime":"2024-04-23T09:00:00:Z","depth":0,"parameterNumber":3,"parameterNumberName":"V-component_of_WINDS"},"data":[0,0,0,0,0,0,0,0,0,0,0,0,0,0,0,0,0,0,0,0,0,0,0,0,0,0,0,0,0,0,0,0,0,0,0,0,0,0,0,0,0,0,0,0,0,0,0,0,0,0,0,0,0,0,0,0,0,0,3.7027,3.7027,0,3.7042,3.7042,3.7042,3.7014,3.7013,3.7012,3.7011,3.7024,3.7025,3.7026,0,0,0,0,0,0,0,0,0,0,0,0,0,3.6973,3.6974,3.7027,3.7027,3.7028,3.7042,3.7042,3.7042,3.7014,3.7013,3.7012,3.7011,3.7023,3.7025,3.7026,0,0,0,0,0,0,0,0,0,0,0,0,0,3.6993,3.6975,3.7027,3.7015,3.7014,3.7042,3.7042,3.7042,3.7014,3.7013,3.7011,3.701,3.7023,3.7024,3.7026,3.7065,0,0,3.7032,3.7032,0,0,0,0,0,0,0,0,3.6992,3.6995,3.7017,3.7016,3.7015,3.7025,3.7027,3.705,3.7014,3.7014,3.7011,3.7009,3.7025,3.7026,3.7032,3.7066,3.7066,3.7032,3.7033,3.7034,3.7034,0,0,0,0,0,0,0,3.6991,3.6994,3.7033,3.7017,3.7016,3.7009,3.701,3.7031,3.7027,3.7014,3.7012,3.7014,3.7024,3.703,3.7032,3.7066,3.7032,3.7033,3.7034,3.7035,3.7132,3.7133,0,0,0,0,0,0,3.6991,3.6993,3.7032,3.7033,3.7,3.7011,3.7012,3.7023,3.7027,3.7026,3.7015,3.7013,3.7028,3.703,3.7032,3.7078,3.7034,3.7035,3.7036,3.713,3.7132,3.7134,0,0,0,0,0,0,3.699,3.6995,3.7032,3.7013,3.7017,3.7013,3.7025,3.7024,3.703,3.7028,3.7027,3.7023,3.7027,3.703,3.7057,3.7078,3.7036,3.7038,3.7129,3.7131,3.7133,3.7169,0,0,0,0,0,0,3.6989,3.6995,3.701,3.7013,3.7018,3.7057,3.7027,3.7025,3.7034,3.703,3.7034,3.7034,3.7026,3.7055,3.7059,3.7079,3.7039,3.7127,3.713,3.7132,3.7166,3.7172,3.7177,0,0,0,0,0,3.6987,3.7019,3.7011,3.7016,3.7037,3.7058,3.7061,3.7052,3.7035,3.705,3.7049,3.7034,3.7075,3.7058,3.7062,3.7084,3.7125,3.7129,3.7132,3.7163,3.7171,3.7177,0,0,0,0,0,0,3.7017,3.7019,3.701,3.7044,3.7052,3.7053,3.7072,3.7061,3.7072,3.7068,3.7056,3.7057,3.7087,3.7088,3.7069,3.7121,3.7097,3.7102,3.7119,3.7126,3.7132,3.7131,3.7041,0,0,0,0,0,3.7027,3.7045,3.7046,3.7076,3.708,3.7076,3.7085,3.7077,3.7084,3.7086,3.7087,3.7093,3.7108,3.7117,3.713,3.7166,3.7166,3.7183,3.7189,3.7194,3.7197,3.7216,3.7223,3.7145,3.7145,3.7145,0,0,3.7049,3.7053,3.7065,3.7082,3.7087,3.7105,3.7078,3.7098,3.7111,3.7089,3.7115,3.7116,3.7122,3.7154,3.7167,3.7155,3.7219,3.7198,3.7202,3.7203,3.722,3.7227,3.7234,3.7147,3.7147,3.7146,0,0,3.7098,3.7103,3.7129,3.7134,3.7142,3.7139,3.7145,3.7149,3.7149,3.7175,3.7159,3.7174,3.7199,3.7204,3.721,3.7262,3.7248,3.7266,3.7296,3.7314,3.732,3.7326,3.7344,3.735,3.727,3.727,3.727,0,3.7124,3.7152,3.7143,3.7165,3.7173,3.7155,3.718,3.7185,3.7197,3.7202,3.7189,3.722,3.7223,3.7256,3.7268,3.7274,3.728,3.7265,3.7321,3.7326,3.7331,3.7347,3.7354,3.7272,3.7272,3.7272,3.7272,0,3.7183,3.7202,3.7222,3.7234,3.7244,3.7268,3.7262,3.7273,3.7266,3.7264,3.729,3.7293,3.7306,3.7314,3.7306,3.7345,3.7337,3.7323,3.7298,3.734,3.7356,3.7362,3.7275,3.7275,3.7274,3.7274,0,0,3.725,3.7258,3.7266,3.7271,3.7279,3.7293,3.7315,3.7329,3.7339,3.7347,3.7365,3.7387,3.7374,3.738,3.7373,3.7389,3.743,3.7372,3.7372,3.7382,3.7472,3.7483,3.749,3.7421,3.7422,3.7423,3.7471,0,3.7298,3.7338,3.7331,3.7369,3.7386,3.7369,3.7389,3.7395,3.7394,3.7408,3.7407,3.7422,3.7404,3.7407,3.7423,3.7421,3.7447,3.7418,3.7437,3.7437,3.7435,3.7498,3.751,3.7555,3.7477,3.7478,3.7479,0,3.736,3.7371,3.7411,3.7416,3.7423,3.7441,3.7453,3.7467,3.7474,3.7472,3.748,3.747,3.7491,3.7467,3.7497,3.7477,3.7484,3.7485,3.7486,3.7487,3.746,3.75,3.7569,3.7576,3.7489,3.7488,3.7487,0,3.7404,3.743,3.7457,3.7462,3.7469,3.7481,3.7485,3.749,3.7499,3.751,3.7515,3.7528,3.7535,3.7544,3.7538,3.7521,3.7568,3.7544,3.7566,3.7566,3.7576,3.7575,3.7646,3.7582,3.7582,3.7582,3.7582,0,3.7458,3.7482,3.7477,3.7493,3.752,3.7512,3.7539,3.754,3.7546,3.7562,3.7548,3.7563,3.7554,3.7568,3.7563,3.7588,3.7591,3.7589,3.7588,3.759,3.759,3.7594,3.759,3.7584,3.7583,3.7583,3.7583,0,3.7511,3.7508,3.7537,3.7541,3.7543,3.7563,3.7566,3.7581,3.758,3.76,3.7604,3.7601,3.7617,3.7612,3.7629,3.7626,3.7657,3.7651,3.7655,3.7653,3.7676,3.7673,3.7751,3.776,3.7691,3.7692,3.7692,0,3.7545,3.7564,3.7571,3.7581,3.7586,3.7602,3.7611,3.7604,3.7614,3.7624,3.7638,3.7653,3.7664,3.7691,3.769,3.7703,3.7697,3.7723,3.7699,3.7701,3.7696,3.7695,3.7697,3.7728,3.7729,3.7729,3.773,0,3.7606,3.7604,3.7618,3.7632,3.7644,3.7654,3.7663,3.7672,3.7666,3.7678,3.7694,3.7704,3.7721,3.7736,3.7748,3.7751,3.7739,3.7738,3.7744,3.7746,3.7747,3.7746,3.7667,3.7736,3.7735,3.7735,3.7734,3.7734,3.765,3.7666,3.7674,3.769,3.7696,3.7705,3.772,3.772,3.7735,3.7749,3.7744,3.7763,3.7769,3.7784,3.7788,3.7803,3.7792,3.7801,3.7803,3.7805,3.7808,3.7745,3.7805,3.7805,3.7805,3.7804,3.7804,0,3.7709,3.7714,3.7729,3.7743,3.7756,3.7745,3.7754,3.7765,3.7783,3.779,3.7802,3.7821,3.7836,3.7836,3.785,3.7861,3.7856,3.7865,3.7863,3.7864,3.7816,3.781,3.7869,3.7869,3.7869,3.7869,3.7869,3.7869,3.7742,3.7768,3.7767,3.7796,3.78,3.7819,3.7826,3.7834,3.784,3.7862,3.7874,3.7875,3.7879,3.7893,3.7906,3.7905,3.7911,3.7921,3.7919,3.7874,3.7868,3.7861,3.7855,3.7923,3.7923,3.7965,3.7966,3.7966]}]]